Weather Service Report


777 
ASUS46 KSEW 251310
RWRWA 

WASHINGTON REGIONAL WEATHER ROUNDUP
NATIONAL WEATHER SERVICE SEATTLE WA
500 AM PST SAT FEB 25 2017

NOTE:"FAIR" INDICATES FEW OR NO CLOUDS BELOW 12,000 FEET WITH NO 
SIGNIFICANT WEATHER AND/OR OBSTRUCTIONS TO VISIBILITY.

WAZ507-509-555>559-251400-
SEATTLE, TACOMA, EVERETT, AND VICINITY
  
CITY           SKY/WX    TMP DP  RH WIND       PRES   REMARKS
EVERETT        MOCLDY    31  26  82 CALM      30.24S                  
BOEING FIELD   PTCLDY    31  29  92 SE3       30.26F                  
RENTON         CLEAR     32  28  85 S3        30.26F                  
SEATAC AIRPORT PTCLDY    33  27  78 SE6       30.25S                  
JBLM-MCCHORD   PTCLDY    29  29 100 S3        30.25S                  
PUYALLUP         N/A     28  28 100 CALM      30.25S                  
BREMERTON      CLEAR     34  30  86 NE5       30.28R                  
JBLM-FT LEWIS  CLOUDY    29  29 100 SE5       30.25S                  
TACOMA NARROWS PTCLDY    34  32  92 CALM      30.25F                  
$$
 
WAZ001-503-506-510-514-515-251400-
NORTH INTERIOR
  
CITY           SKY/WX    TMP DP  RH WIND       PRES   REMARKS
BELLINGHAM     CLEAR     26  25  96 CALM      30.25S                  
FRIDAY HARBOR  CLOUDY    38  31  76 VRB5      30.27S                  
EASTSOUND      MOCLDY    39  32  75 N3        30.25S                  
PORT ANGELES   PTCLDY    31  31 100 SW3       30.26S                  
EDIZ HOOK      FAIR      37  33  85 S7        30.27S                  
PORT TOWNSEND  CLOUDY    34  34 100 CALM      30.27F                  
NAS WHIDBEY    CLOUDY    36  29  75 E5        30.30S                  
ARLINGTON      CLOUDY    25  19  80 CALM      30.29R                  
BURLINGTON     CLOUDY    34  28  80 NE6       30.27S                  
$$
 
WAZ020-022-039-040-504-511-512-251400-
SOUTHWEST INTERIOR
  
CITY           SKY/WX    TMP DP  RH WIND       PRES   REMARKS
SHELTON        CLEAR     24  22  91 CALM      30.24S                  
OLYMPIA        FOG       27  27 100 S5        30.26S VSB 1/4          
CHEHALIS       FOG       30  30 100 CALM      30.26S VSB<1/4          
KELSO          MOCLDY    30  29  96 CALM      30.27R                  
VANCOUVER      CLEAR     32  32 100 CALM      30.25R                  
SCAPPOOSE, OR  CLEAR     30  29  96 CALM      30.25R                  
PORTLAND, OR   PTCLDY    33  30  88 CALM      30.25R                  
$$
 
WAZ021-516-517-251400-
WASHINGTON COAST
  
CITY           SKY/WX    TMP DP  RH WIND       PRES   REMARKS
FORKS          CLEAR     26  26 100 CALM      30.26S                  
HOQUIAM        CLEAR     29  29 100 E6        30.26S FOG              
ASTORIA, OR    CLEAR     30  27  88 E3        30.23S                  
$$
 
WAZ019-023-024-040-567>569-251400-
CASCADE MOUNTAINS AND COLUMBIA GORGE
  
CITY           SKY/WX    TMP DP  RH WIND       PRES   REMARKS
STAMPEDE PASS  NOT AVBL                                               
TROUTDALE, OR  CLOUDY    35  30  82 E7        30.24F                  
THE DALLES, OR CLOUDY    26  22  84 E6        30.27S                  
$$

WAZ026-027-041>044-520-521-251400-
EAST SLOPES
  
CITY           SKY/WX    TMP DP  RH WIND       PRES   REMARKS
OMAK           CLEAR     14   9  80 CALM      30.21S                  
WENATCHEE      CLEAR     17  13  84 W5        30.20S                  
ELLENSBURG     CLEAR     14  10  84 CALM      30.18S                  
YAKIMA         CLEAR     19  14  81 NW6       30.22S                  
SUNNYSIDE ARPT SUNNY     21  20  95 CALM      30.22F                  
$$

WAZ028-034-035-251400-
COLUMBIA BASIN
  
CITY           SKY/WX    TMP DP  RH WIND       PRES   REMARKS
EPHRATA        CLEAR     24  12  60 NW9       30.18S                  
MOSES LAKE     CLEAR     17  13  84 N3        30.20S                  
PASCO          CLEAR     23  20  88 CALM      30.25S                  
HERMISTON, OR  CLEAR     20  20 100 S3        30.22S                  
$$

WAZ036>038-251400-
NORTHEAST WASHINGTON
  
CITY           SKY/WX    TMP DP  RH WIND       PRES   REMARKS
SPOKANE GEIGER FOG       13  11  92 SW6       30.10F VSB 1/2          
SPOKANE FELTS  FOG       23  23 100 CALM      30.14S VSB 1/2          
FAIRCHILD AFB  LGT SNOW  10   9  92 CALM      30.09S FOG              
COEURDALENE,ID CLOUDY    18  18 100 CALM      30.10F FOG              
DEER PARK      FOG       15  12  88 CALM      30.12S VSB 1/4          
$$

WAZ029>033-251400-
SOUTHEAST WASHINGTON
  
CITY           SKY/WX    TMP DP  RH WIND       PRES   REMARKS
PULLMAN        CLEAR     23  18  81 CALM      30.12S                  
LEWISTON, ID   CLEAR     23  18  81 CALM      30.17S                  
WALLA WALLA    CLEAR     27  24  89 S5        30.19S                  
PENDLETON, OR  CLEAR     24  21  88 CALM      30.17S                  
$$
  

Return to Home page


Western Regional Climate Center, wrcc@dri.edu